Frankfort, MI

2:54 PM EDT on May 20, 2018 (GMT -0400)
Frankfort

Weather History for KFKS - October, 2013

Change the Weather History Date:

Thursday, October 31, 2013

  Actual Average (KMBL) Record (KMBL)
Temperature  
Mean Temperature 58 °F -  
Max Temperature 63 °F 56 °F 74 °F (1950)
Min Temperature 53 °F 38 °F 19 °F (1992)
Degree Days  
Heating Degree Days 6    
Growing Degree Days 8 (Base 50)    
Moisture  
Dew Point 55 °F    
Average Humidity 92    
Maximum Humidity 96    
Minimum Humidity 86    
Precipitation  
Precipitation 0.00 in - - ()
Sea Level Pressure  
Sea Level Pressure 29.44 in    
Wind  
Wind Speed 5 mph (South)    
Max Wind Speed 15 mph    
Max Gust Speed 22 mph    
Visibility 7 miles    
Events Rain    
Averages and records for this station are not official NWS values.
T = Trace of Precipitation, MM = Missing Value Source: NWS Daily Summary

Daily Weather History Graph

Daily Weather History Graph

Search for Another Location

Airport or City:

Astronomy

Oct. 31, 2013 Rise Set
Actual Time 8:21 AM EDT 6:34 PM EDT
Civil Twilight 7:51 AM EDT 7:04 PM EDT
Nautical Twilight 7:16 AM EDT 7:39 PM EDT
Astronomical Twilight 6:42 AM EDT 8:13 PM EDT
Moon 5:03 AM EDT (10/31) 4:58 PM EDT (10/31)
Length of Visible Light 11h 13m
Length of Day
10h 13m
Waning Crescent, 10% of the Moon is Illuminated
Oct 31
Waning Crescent
Nov 3
New
Nov 10
First Quarter
Nov 17
Full
Nov 25
Last Quarter

Hourly Weather History & Observations

Time (EDT) Temp. Dew Point Humidity Pressure Visibility Wind Dir Wind Speed Gust Speed Precip Events Conditions
12:13 AM 54.0 °F 50.9 °F 89% 29.80 in 7.0 mi SE 6.9 mph - N/A   Overcast
12:33 AM 54.5 °F 50.9 °F 88% 29.79 in 7.0 mi SE 4.6 mph - N/A   Overcast
12:53 AM 54.5 °F 51.1 °F 88% 29.77 in 7.0 mi SE 5.8 mph - N/A   Overcast
1:13 AM 54.5 °F 51.3 °F 89% 29.77 in 7.0 mi SE 8.1 mph - N/A   Overcast
1:33 AM 54.7 °F 51.4 °F 89% 29.76 in 7.0 mi SSE 3.5 mph - N/A   Overcast
1:54 AM 54.7 °F 51.8 °F 90% 29.75 in 7.0 mi ESE 3.5 mph - N/A   Mostly Cloudy
2:14 AM 54.9 °F 52.0 °F 90% 29.75 in 5.0 mi Calm Calm - N/A   Mostly Cloudy
2:34 AM 55.4 °F 52.3 °F 89% 29.75 in 7.0 mi South 3.5 mph - N/A   Overcast
2:54 AM 56.3 °F 53.4 °F 90% 29.73 in 7.0 mi SSE 4.6 mph - N/A   Overcast
3:14 AM 56.5 °F 53.6 °F 90% 29.72 in 7.0 mi South 3.5 mph - N/A   Overcast
3:34 AM 56.5 °F 53.6 °F 90% 29.69 in 7.0 mi SE 3.5 mph - N/A   Mostly Cloudy
3:54 AM 57.2 °F 53.8 °F 88% 29.69 in 7.0 mi Calm Calm - N/A   Mostly Cloudy
4:14 AM 56.5 °F 53.6 °F 90% 29.68 in 7.0 mi SE 3.5 mph - N/A   Overcast
4:34 AM 57.2 °F 54.5 °F 91% 29.67 in 5.0 mi SSE 3.5 mph - N/A Rain Rain
4:55 AM 56.5 °F 54.5 °F 93% 29.65 in 3.0 mi SE 3.5 mph - N/A Rain Rain
5:15 AM 56.3 °F 54.5 °F 94% 29.64 in 2.0 mi Calm Calm - N/A   Drizzle
5:35 AM 55.9 °F 54.3 °F 94% 29.63 in 1.8 mi Calm Calm - N/A   Light Drizzle
5:55 AM 55.6 °F 54.0 °F 94% 29.63 in 1.0 mi SE 4.6 mph - N/A   Light Drizzle
6:15 AM 55.4 °F 53.8 °F 94% 29.63 in 1.5 mi SE 3.5 mph - N/A   Overcast
6:35 AM 55.4 °F 54.0 °F 95% 29.62 in 2.0 mi Calm Calm - N/A   Overcast
6:55 AM 55.6 °F 54.0 °F 94% 29.61 in 2.5 mi Calm Calm - N/A   Overcast
7:15 AM 55.4 °F 53.6 °F 94% 29.60 in 1.2 mi Calm Calm - N/A Rain Heavy Rain
7:36 AM 55.8 °F 54.1 °F 94% 29.58 in 5.0 mi ESE 3.5 mph - N/A Rain Light Rain
7:56 AM 55.4 °F 53.6 °F 94% 29.58 in 4.0 mi SE 3.5 mph - N/A Rain Light Rain
8:16 AM 55.4 °F 53.8 °F 94% 29.57 in 4.0 mi Calm Calm - N/A Rain Rain
8:36 AM 55.8 °F 54.1 °F 94% 29.55 in 5.0 mi SE 4.6 mph - N/A Rain Rain
8:56 AM 56.3 °F 54.5 °F 94% 29.55 in 10.0 mi SE 3.5 mph - N/A   Drizzle
9:11 AM 56.5 °F 54.7 °F 94% 29.55 in 7.0 mi SE 3.5 mph - N/A Rain Rain
9:31 AM 56.8 °F 54.9 °F 93% 29.54 in 7.0 mi ESE 4.6 mph - N/A Rain Rain
9:51 AM 57.2 °F 55.4 °F 94% 29.53 in 7.0 mi Calm Calm - N/A Rain Rain
10:11 AM 57.2 °F 55.6 °F 94% 29.52 in 4.0 mi Calm Calm - N/A Rain Rain
10:31 AM 57.6 °F 55.9 °F 94% 29.52 in 7.0 mi Calm Calm - N/A Rain Rain
10:52 AM 57.7 °F 56.1 °F 94% 29.51 in 5.0 mi SE 3.5 mph - N/A Rain Rain
11:12 AM 58.1 °F 56.3 °F 94% 29.50 in 2.0 mi SSE 4.6 mph - N/A Rain Rain
11:32 AM 58.1 °F 56.5 °F 94% 29.50 in 4.0 mi SSE 4.6 mph - N/A Rain Rain
11:52 AM 59.5 °F 57.7 °F 94% 29.48 in 10.0 mi South 9.2 mph 16.1 mph N/A Rain Light Rain
12:12 PM 59.9 °F 58.1 °F 94% 29.46 in 10.0 mi South 12.7 mph 20.7 mph N/A   Overcast
12:32 PM 60.8 °F 58.3 °F 91% 29.45 in 10.0 mi SSW 15.0 mph 21.9 mph N/A   Overcast
12:52 PM 60.8 °F 58.3 °F 91% 29.44 in 7.0 mi South 12.7 mph 21.9 mph N/A Rain Light Rain
1:12 PM 60.8 °F 58.6 °F 93% 29.42 in 4.0 mi South 10.4 mph 19.6 mph N/A Rain Light Rain
1:32 PM 61.7 °F 59.4 °F 92% 29.40 in 10.0 mi South 6.9 mph - N/A   Overcast
1:52 PM 62.2 °F 59.7 °F 91% 29.38 in 10.0 mi SSE 6.9 mph - N/A   Overcast
2:13 PM 62.8 °F 59.5 °F 89% 29.36 in 10.0 mi South 6.9 mph - N/A   Overcast
2:33 PM 62.6 °F 59.0 °F 88% 29.35 in 10.0 mi South 8.1 mph - N/A   Overcast
2:53 PM 62.6 °F 59.0 °F 88% 29.35 in 10.0 mi South 6.9 mph - N/A   Overcast
3:13 PM 63.0 °F 59.0 °F 87% 29.33 in 10.0 mi South 9.2 mph - N/A   Mostly Cloudy
3:33 PM 62.6 °F 58.5 °F 86% 29.32 in 10.0 mi South 6.9 mph - N/A Rain Light Rain
3:53 PM 61.7 °F 58.1 °F 88% 29.32 in 10.0 mi South 8.1 mph - N/A   Overcast
4:13 PM 61.7 °F 58.1 °F 88% 29.30 in 10.0 mi SSW 9.2 mph - N/A Rain Rain
4:34 PM 59.9 °F 57.2 °F 91% 29.29 in 10.0 mi SSW 11.5 mph 18.4 mph N/A   Overcast
4:54 PM 59.4 °F 57.2 °F 93% 29.28 in 10.0 mi SSW 11.5 mph 18.4 mph N/A Rain Rain
5:14 PM 58.5 °F 56.3 °F 93% 29.27 in 10.0 mi SSW 8.1 mph 16.1 mph N/A Rain Light Rain
5:34 PM 58.1 °F 56.3 °F 94% 29.27 in 7.0 mi SSW 9.2 mph 17.3 mph N/A Rain Rain
5:54 PM 58.1 °F 56.3 °F 94% 29.25 in 5.0 mi SSW 4.6 mph - N/A Rain Rain
6:14 PM 58.1 °F 56.3 °F 94% 29.24 in 7.0 mi SSW 6.9 mph - N/A Rain Rain
6:34 PM 58.6 °F 57.2 °F 95% 29.22 in 7.0 mi SW 4.6 mph - N/A Rain Light Rain
6:54 PM 58.3 °F 56.5 °F 94% 29.20 in 3.0 mi SW 6.9 mph - N/A Rain Heavy Rain
7:14 PM 57.7 °F 55.9 °F 94% 29.20 in 10.0 mi SW 5.8 mph - N/A Rain Light Rain
7:32 PM 57.4 °F 55.8 °F 94% 29.19 in 7.0 mi SW 4.6 mph - N/A Rain Rain
7:52 PM 56.8 °F 55.2 °F 94% 29.18 in 10.0 mi WSW 4.6 mph - N/A Rain Light Rain
8:12 PM 56.3 °F 54.5 °F 94% 29.17 in 5.0 mi WSW 3.5 mph - N/A   Light Drizzle
8:32 PM 56.1 °F 54.5 °F 94% 29.15 in 5.0 mi Calm Calm - N/A Rain Light Rain
8:52 PM 55.8 °F 54.3 °F 95% 29.15 in 4.0 mi WSW 3.5 mph - N/A Rain Light Rain
9:12 PM 55.4 °F 54.0 °F 95% 29.14 in 2.5 mi WSW 4.6 mph - N/A Rain Rain
9:32 PM 54.9 °F 53.6 °F 96% 29.13 in 7.0 mi West 6.9 mph - N/A Rain Rain
9:53 PM 54.5 °F 52.9 °F 94% 29.12 in 4.0 mi WNW 6.9 mph - N/A Rain Light Rain
10:13 PM 54.5 °F 52.9 °F 94% 29.11 in 4.0 mi NW 10.4 mph - N/A Rain Rain
10:33 PM 54.1 °F 52.7 °F 95% 29.10 in 7.0 mi NW 8.1 mph - N/A Rain Light Rain
10:53 PM 54.5 °F 52.7 °F 94% 29.09 in 10.0 mi NW 6.9 mph - N/A Rain Light Rain
11:13 PM 54.1 °F 52.7 °F 95% 29.06 in 10.0 mi NNW 10.4 mph - N/A Rain Light Rain
11:33 PM 54.0 °F 52.3 °F 94% 29.08 in 10.0 mi WNW 9.2 mph - N/A   Light Drizzle
11:54 PM 53.6 °F 51.8 °F 94% 29.08 in 10.0 mi WNW 9.2 mph - N/A   Overcast